Regional Weather Roundup
Issued by NWS Jackson, KY

Home | Current Version | Previous Version | Graphics & Text | Print | Product List | Glossary On
Versions: 1 2 3 4 5 6 7 8 9 10 11 12 13 14 15 16 17 18 19 20 21 22 23 24 25 26 27 28 29 30 31 32 33 34 35 36 37 38 39 40 41 42 43 44 45 46 47 48 49 50
000
ASUS43 KJKL 230610
RWRJKL

EAST KENTUCKY HOURLY WEATHER ROUNDUP
NATIONAL WEATHER SERVICE JACKSON KY
200 AM EDT THU MAR 23 2017

NOTE: "FAIR" INDICATES FEW OR NO CLOUDS BELOW 12,000 FEET WITH
NO SIGNIFICANT WEATHER AND/OR OBSTRUCTIONS TO VISIBILITY.

* THESE REPORTS ARE NOT UNDER NWS QUALITY CONTROL AND MAY NOT
  REPORT WEATHER SUCH AS PRECIPITATION AND FOG.

KYZ079-080-083-085-087-088-110-112-115-119-120-230700
...EASTERN KENTUCKY...

CITY           SKY/WX    TMP DP  RH WIND       PRES   REMARKS
JACKSON        CLEAR     34  14  43 VRB3      30.39F
6HR MIN TEMP:  34; 6HR MAX TEMP:  42;

LONDON         PTCLDY    38  14  37 NE7       30.37F WCI  33
6HR MIN TEMP:  37; 6HR MAX TEMP:  45;

SOMERSET*      CLEAR     36  18  48 E3        30.38F
MONTICELLO*    PTCLDY    35  24  64 NW9       30.37F WCI  28
6HR MIN TEMP:  35; 6HR MAX TEMP:  45;

WILLIAMSBURG*  PTCLDY    39  16  38 E6        30.35F WCI  35
MIDDLESBORO*   CLOUDY    37  27  66 CALM      30.37F
6HR MIN TEMP:  37; 6HR MAX TEMP:  49;

HARLAN APT*    CLEAR     36  21  55 CALM      30.36F
PIKE CO APT*     N/A     32  15  48 NE5       30.39F WCI  28
BIG SANDY APT* CLEAR     31  16  53 NE6       30.42S WCI  26
6HR MIN TEMP:  31; 6HR MAX TEMP:  40;

MOREHEAD APT*  CLOUDY    34  12  40 E7        30.45S WCI  28
ASHLAND*       CLOUDY    34  16  47 NE3       30.47R
$$

KYZ035-036-041-042-044-050-067-078-099-230700
...CENTRAL KENTUCKY...

CITY           SKY/WX    TMP DP  RH WIND       PRES   REMARKS
MT STERLING*   CLEAR     32  19  59 E7        30.43F WCI  26
FLEMING/MASON* CLEAR     29  17  59 NE8       30.47R WCI  22
DANVILLE*      CLEAR     30  21  69 NE3       30.41S
LEXINGTON      CLEAR     31  19  61 NE12      30.41F WCI  22
6HR MIN TEMP:  30; 6HR MAX TEMP:  39;

FRANKFORT      CLEAR     33  17  51 E8        30.41F WCI  26
6HR MIN TEMP:  33; 6HR MAX TEMP:  42;

LOUISVILLE     MOCLDY    36  18  48 E5        30.42F WCI  32
6HR MIN TEMP:  36; 6HR MAX TEMP:  45;

LEBANON*         N/A     32  19  59 NE5       30.40S WCI  27
GLASGOW*       CLEAR     35  23  60 NE7       30.36F WCI  29
BOWLING GREEN  CLEAR     36  22  56 NE7       30.37F WCI  30
6HR MIN TEMP:  36; 6HR MAX TEMP:  47;

$$

KYZ091>093-OHZ055-061-077-WVZ005-015-034-035-042-230700
...SOUTHERN OHIO/WEST VIRGINIA...

CITY           SKY/WX    TMP DP  RH WIND       PRES   REMARKS
COVINGTON      PTCLDY    32  19  58 E12       30.45F WCI  23
COLUMBUS       CLEAR     26  14  60 NE6       30.51S WCI  19
DAYTON         PTCLDY    25  17  72 E9        30.48F WCI  15
WILMINGTON     CLEAR     27  21  78 NE8       30.47S WCI  19
HUNTINGTON     CLOUDY    33  15  47 NE6       30.45F WCI  28
CHARLESTON     CLOUDY    29  21  72 CALM      30.45F
PINEVILLE*     CLEAR     26  19  76 MISG      30.45F
BECKLEY        CLEAR     26  14  60 E3        30.38F
BLUEFIELD      CLEAR     28  10  46 E5        30.37F WCI  23
LOGAN CO APT*    N/A     32  16  51 CALM      30.40F
$$

VAZ002-007-008-TNZ017-027-036-066-071-230700
...SOUTHWEST VIRGINIA/EAST TENNESSEE...

CITY           SKY/WX    TMP DP  RH WIND       PRES   REMARKS
WISE*          CLEAR     32  14  47 CALM      30.35F
JONESVILLE*      N/A     34  25  69 CALM      30.38F
ABINGDON*      CLEAR     38  18  44 E8        30.37S WCI  32
BRISTOL        CLEAR     36  20  52 CALM      30.37S
MORRISTOWN*    MOCLDY    41  18  38 NE7       30.32F
SEVIERVILLE*   CLEAR     41  19  42 E3        30.33S
KNOXVILLE      PTCLDY    43  21  41 NE7       30.32F
LAFOLLETTE*    CLEAR     39  28  65 CALM      30.38F
OAK RIDGE      CLOUDY    46  17  31 NE5       30.35F
CROSSVILLE     CLOUDY    39  21  48 NE5       30.32F
NASHVILLE      CLEAR     43  22  43 NE7       30.34F
$$

...KEY TO REMARKS...
VSB - VISIBILITY IN MILES
WCI - WIND CHILL INDEX
HX  - HEAT INDEX

$$



USA.gov is the U.S. government's official web portal to all federal, state and local government web resources and services.